sat.trackr.live / text

‹ back to catalog

STARLINK-32709

NORAD 62439 · 2024-251H

PAYLOAD ACTIVE UNKNOWN

§ Identity

Operator
Country
US
Launch date
2024-12-29
Launch site
AFWTR
Launch vehicle
Mass (kg)
RCS (m²)

Purposes: comms

External: N2YO · Heavens-Above · Gunter

§ Orbital elements

Epoch: 2026-05-24T23:23:16.557216Z

Period
94.10 min
Inclination
53.1595°
Eccentricity
0.0000905
Mean motion
15.30207652 rev/d
Perigee alt
474.6 km
Apogee alt
475.8 km
Semi-major
6,853.3 km
B*
3.8738e-4
RAAN
341.2785°
Arg perigee
106.8469°
Mean anomaly
253.2631°
Rev number
7,962

§ Raw data

STARLINK-327091 62439U 24251H   26144.97449719  .00011134  00000+0  38738-3 0  99962 62439  53.1595 341.2785 0000905 106.8469 253.2631 15.30207652 79629

JSON: /api/v1/satellites/62439 · /tle

For live sub-satellite position, see the globe view (requires WebGL).

§ Visibility from observer

Set your observer location to see the next 7 days of passes ≥ 10°. The values pass through the URL so the page stays shareable.

No JS? Fill the form by hand. The geolocation button needs JavaScript.